COSMOS 970 DEB, 64984

Orbit data source: Space-Track

COSMOS 970 DEB, 64984 is space debris in LEO originally from a launch on Wed, 21 Dec 1977 UTC launched from the Tyuratam Missile And Space Complex (TTMTR). Debris objects in space refer to the collection of defunct objects orbiting the Earth. Examples of debris include non-operational satellites, rocket bodies, and fragments generated from explosions, collisions, or faulty payload assembly.

Loading next visibility...
Identifier
64984, 1977-121CV
Orbit
LEO
Country
Flag of CISCIS
Related business
Manufacturer
Unknown
Mission
Spacecraft
Bus & Motor
Unknown
Mass
Unknown
Launch date (UTC)
1977-12-21 (48 years ago)
Launch vehicle
Unknown
Launch site
Tyuratam Missile And Space Complex (TTMTR)
Object type
Payload
Rocket body
Debris
Shape & HBR
Unknown shape, 0.1 m
Radar Cross Section
Small (<0.1 m²)

Expand to show TLE details & history
Last TLE update: 5 days ago

TLE from 5 days ago
0 COSMOS 970 DEB
1 64984U 77121CV  26167.02950919  .00000012  00000-0  10917-3 0  9990
2 64984  65.8286  78.3379 0129854 277.4514  81.1804 13.62769089323993
Epoch: 2026-06-16T00:42Z
TLE epoch observation values (Epoch: 2026-06-16T00:42:29.594Z)
Latitude
0.00001°
Longitude
163.40719°
Altitude
1,014.1 km
Speed
7.352 km/s
True Right ascension
05h 13m 21s
True Declination
0° 00' 00"
Sunlit
Object was in daylight at epoch
Visualization orbit readout
Latitude
Unknown
Longitude
Unknown
Altitude
Unknown
Speed
Unknown
Apparent Right ascension
Unknown
Apparent Declination
Unknown
Sunlit
N/A
Visualization observer readout
Local Sidereal Time
07:16:40
Azimuth
Unknown
Elevation
Unknown
Doppler factor
Unknown
Orbital elements
Apogee altitude
1,120.294 km
Perigee altitude
928.05 km
Semi-major axis
7,402.309 km
Eccentricity
0.01299
Inclination
65.8286°
RAAN
78.3379°
Arg. of periapsis
277.4514°
True anomaly
82.65433°
Mean anomaly
81.1804°
Eccentric anomaly
81.91702°
Mean motion
3.40794 °/min
Orbital period
105.64 mins
BSTAR
0.00010917
Loading maneuver chart data...
Computing Atmospheric mass density...
Loading historical data...
Loading historical data...
Loading historical data...
Loading historical data...
Loading historical data...
Loading historical data...
Loading historical data...

Documentation

Showing up to 5 results
|